• In Österreich
  • Länderverzeichnis
  • Für 7 Tage
  • Wassertemperatur
  • Satellitenkarten
  • Wetterkarte
  • News
  • Widgets
  • user-avatar
    Anmelden

    Stündliche Wetter Hannover

    Heute, 20 Mai, Sonntag

    Zeit Temperatur Niederschläge Wind Luftdruck Luftfeuchtigkeit
    00:00 +11°C° 0 mm 1 m/S 762 mmHg 91%
    01:00 +11°C° 0 mm 1 m/S 762 mmHg 92%
    02:00 +10°C° 0 mm 1 m/S 763 mmHg 92%
    03:00 +10°C° 0 mm 1 m/S 763 mmHg 92%
    04:00 +9°C° 0 mm 2 m/S 763 mmHg 92%
    05:00 +10°C° 0 mm 2 m/S 763 mmHg 86%
    06:00 +12°C° 0 mm 2 m/S 763 mmHg 81%
    07:00 +12°C° 0 mm 3 m/S 763 mmHg 75%
    08:00 +14°C° 0 mm 3 m/S 763 mmHg 68%
    09:00 +17°C° 0 mm 3 m/S 763 mmHg 61%
    10:00 +18°C° 0 mm 4 m/S 763 mmHg 54%
    11:00 +19°C° 0 mm 4 m/S 763 mmHg 52%
    12:00 +20°C° 0 mm 4 m/S 763 mmHg 50%
    13:00 +21°C° 0 mm 4 m/S 762 mmHg 48%
    14:00 +21°C° 0 mm 4 m/S 762 mmHg 49%
    15:00 +21°C° 0 mm 4 m/S 762 mmHg 51%
    16:00 +21°C° 0 mm 4 m/S 762 mmHg 52%
    17:00 +20°C° 0 mm 4 m/S 761 mmHg 58%
    18:00 +19°C° 0 mm 4 m/S 761 mmHg 63%
    19:00 +18°C° 0 mm 3 m/S 761 mmHg 69%
    20:00 +17°C° 0 mm 3 m/S 762 mmHg 71%
    21:00 +14°C° 0 mm 3 m/S 762 mmHg 72%
    22:00 +12°C° 0 mm 3 m/S 762 mmHg 74%
    23:00 +12°C° 0 mm 3 m/S 762 mmHg 74%

    Morgen, 21 Mai, Montag

    Zeit Temperatur Niederschläge Wind Luftdruck Luftfeuchtigkeit
    00:00 +12°C° 0 mm 3 m/S 762 mmHg 74%
    01:00 +11°C° 0 mm 3 m/S 762 mmHg 73%
    02:00 +11°C° 0 mm 3 m/S 762 mmHg 77%
    03:00 +10°C° 0 mm 3 m/S 761 mmHg 81%
    04:00 +10°C° 0 mm 3 m/S 761 mmHg 85%
    05:00 +11°C° 0 mm 4 m/S 761 mmHg 82%
    06:00 +13°C° 0 mm 4 m/S 761 mmHg 80%
    07:00 +14°C° 0 mm 5 m/S 761 mmHg 78%
    08:00 +15°C° 0 mm 5 m/S 760 mmHg 71%
    09:00 +17°C° 0 mm 6 m/S 760 mmHg 64%
    10:00 +20°C° 0 mm 6 m/S 760 mmHg 58%
    11:00 +20°C° 0 mm 6 m/S 759 mmHg 56%
    12:00 +21°C° 0 mm 7 m/S 759 mmHg 54%
    13:00 +22°C° 0 mm 7 m/S 758 mmHg 53%
    14:00 +22°C° 0 mm 6 m/S 758 mmHg 54%
    15:00 +22°C° 0 mm 6 m/S 757 mmHg 55%
    16:00 +22°C° 0 mm 6 m/S 757 mmHg 56%
    17:00 +21°C° 0 mm 5 m/S 757 mmHg 61%
    18:00 +20°C° 0 mm 5 m/S 757 mmHg 65%
    19:00 +19°C° 0 mm 4 m/S 756 mmHg 69%
    20:00 +18°C° 0 mm 4 m/S 757 mmHg 70%
    21:00 +17°C° 0 mm 4 m/S 757 mmHg 72%
    22:00 +14°C° 0 mm 4 m/S 757 mmHg 73%
    23:00 +14°C° 0 mm 4 m/S 757 mmHg 74%

    übermorgen, 22 Mai, Dienstag

    Zeit Temperatur Niederschläge Wind Luftdruck Luftfeuchtigkeit
    00:00 +13°C° 0 mm 4 m/S 756 mmHg 75%
    01:00 +13°C° 0 mm 4 m/S 756 mmHg 77%
    02:00 +12°C° 0 mm 3 m/S 756 mmHg 79%
    03:00 +11°C° 0 mm 3 m/S 756 mmHg 82%
    04:00 +11°C° 0 mm 3 m/S 756 mmHg 85%
    05:00 +12°C° 0 mm 3 m/S 756 mmHg 82%
    06:00 +13°C° 0 mm 3 m/S 756 mmHg 80%
    07:00 +14°C° 0 mm 4 m/S 756 mmHg 77%
    08:00 +17°C° 0 mm 4 m/S 756 mmHg 71%
    09:00 +18°C° 0 mm 4 m/S 756 mmHg 65%
    10:00 +20°C° 0 mm 5 m/S 756 mmHg 60%
    11:00 +21°C° 0 mm 5 m/S 756 mmHg 57%
    12:00 +22°C° 0 mm 4 m/S 756 mmHg 55%
    13:00 +22°C° 0 mm 4 m/S 756 mmHg 53%
    14:00 +23°C° 0 mm 4 m/S 756 mmHg 53%
    15:00 +23°C° 0 mm 4 m/S 756 mmHg 53%
    16:00 +23°C° 0 mm 4 m/S 756 mmHg 53%
    17:00 +22°C° 0 mm 3 m/S 756 mmHg 58%
    18:00 +21°C° 0 mm 3 m/S 756 mmHg 63%
    19:00 +20°C° 0 mm 2 m/S 756 mmHg 69%
    20:00 +18°C° 0 mm 3 m/S 757 mmHg 72%
    21:00 +17°C° 0 mm 3 m/S 757 mmHg 76%
    22:00 +14°C° 0 mm 3 m/S 758 mmHg 79%
    23:00 +13°C° 0 mm 3 m/S 758 mmHg 83%

    23 Mai, Mittwoch

    Zeit Temperatur Niederschläge Wind Luftdruck Luftfeuchtigkeit
    00:00 +13°C° 0 mm 3 m/S 759 mmHg 87%
    01:00 +12°C° 0 mm 3 m/S 759 mmHg 91%
    02:00 +12°C° 0 mm 3 m/S 759 mmHg 91%
    03:00 +11°C° 0 mm 3 m/S 759 mmHg 92%
    04:00 +10°C° 0 mm 3 m/S 760 mmHg 92%
    05:00 +11°C° 0 mm 3 m/S 760 mmHg 88%
    06:00 +12°C° 0 mm 3 m/S 760 mmHg 84%
    07:00 +13°C° 0 mm 3 m/S 761 mmHg 80%
    08:00 +15°C° 0 mm 4 m/S 761 mmHg 73%
    09:00 +18°C° 0 mm 4 m/S 761 mmHg 67%
    10:00 +19°C° 0 mm 4 m/S 762 mmHg 60%
    11:00 +20°C° 0 mm 5 m/S 762 mmHg 57%
    12:00 +21°C° 0 mm 5 m/S 762 mmHg 53%
    13:00 +22°C° 0 mm 5 m/S 761 mmHg 49%
    14:00 +22°C° 0 mm 5 m/S 761 mmHg 50%
    15:00 +23°C° 0 mm 5 m/S 761 mmHg 52%
    16:00 +23°C° 0 mm 5 m/S 761 mmHg 53%
    17:00 +22°C° 0 mm 4 m/S 761 mmHg 58%
    18:00 +21°C° 0 mm 4 m/S 761 mmHg 62%
    19:00 +20°C° 0 mm 3 m/S 762 mmHg 67%
    20:00 +18°C° 0 mm 4 m/S 762 mmHg 69%
    21:00 +17°C° 0 mm 4 m/S 762 mmHg 70%
    22:00 +15°C° 0 mm 4 m/S 763 mmHg 71%
    23:00 +14°C° 0 mm 3 m/S 763 mmHg 74%

    24 Mai, Donnerstag

    Zeit Temperatur Niederschläge Wind Luftdruck Luftfeuchtigkeit
    00:00 +13°C° 0 mm 3 m/S 763 mmHg 76%
    01:00 +12°C° 0 mm 3 m/S 763 mmHg 78%
    02:00 +12°C° 0 mm 3 m/S 763 mmHg 79%
    03:00 +11°C° 0 mm 3 m/S 763 mmHg 81%
    04:00 +11°C° 0 mm 3 m/S 763 mmHg 82%
    05:00 +12°C° 0 mm 3 m/S 763 mmHg 79%
    06:00 +13°C° 0 mm 3 m/S 763 mmHg 77%
    07:00 +14°C° 0 mm 4 m/S 763 mmHg 75%
    08:00 +17°C° 0 mm 4 m/S 764 mmHg 69%
    09:00 +19°C° 0 mm 5 m/S 764 mmHg 64%
    10:00 +21°C° 0 mm 5 m/S 764 mmHg 59%
    11:00 +21°C° 0 mm 6 m/S 764 mmHg 56%
    12:00 +22°C° 0 mm 6 m/S 763 mmHg 53%
    13:00 +23°C° 0 mm 6 m/S 763 mmHg 51%
    14:00 +23°C° 0 mm 6 m/S 763 mmHg 52%
    15:00 +23°C° 0 mm 6 m/S 763 mmHg 53%
    16:00 +23°C° 0 mm 6 m/S 763 mmHg 54%
    17:00 +22°C° 0 mm 5 m/S 763 mmHg 57%
    18:00 +21°C° 0 mm 5 m/S 763 mmHg 61%
    19:00 +19°C° 0 mm 5 m/S 763 mmHg 64%
    20:00 +17°C° 0 mm 5 m/S 763 mmHg 60%
    21:00 +15°C° 0 mm 5 m/S 763 mmHg 57%
    22:00 +13°C° 0 mm 5 m/S 764 mmHg 53%
    23:00 +12°C° 0 mm 4 m/S 764 mmHg 62%

    25 Mai, Freitag

    Zeit Temperatur Niederschläge Wind Luftdruck Luftfeuchtigkeit
    00:00 +11°C° 0 mm 4 m/S 764 mmHg 70%
    01:00 +10°C° 0 mm 3 m/S 764 mmHg 79%
    02:00 +9°C° 0 mm 3 m/S 764 mmHg 83%
    03:00 +9°C° 0 mm 3 m/S 764 mmHg 87%
    04:00 +9°C° 0 mm 3 m/S 763 mmHg 91%
    05:00 +8°C° 0 mm 4 m/S 763 mmHg 86%
    06:00 +10°C° 0 mm 4 m/S 763 mmHg 82%
    07:00 +11°C° 0 mm 4 m/S 763 mmHg 77%
    08:00 +13°C° 0 mm 5 m/S 763 mmHg 72%
    09:00 +15°C° 0 mm 5 m/S 763 mmHg 68%
    10:00 +16°C° 0 mm 5 m/S 763 mmHg 63%
    11:00 +19°C° 0 mm 5 m/S 763 mmHg 59%
    12:00 +20°C° 0 mm 5 m/S 762 mmHg 56%
    13:00 +21°C° 0 mm 5 m/S 762 mmHg 53%
    14:00 +21°C° 0 mm 5 m/S 762 mmHg 55%
    15:00 +20°C° 0 mm 5 m/S 762 mmHg 56%
    16:00 +20°C° 0 mm 6 m/S 761 mmHg 58%
    17:00 +19°C° 0,1 mm 5 m/S 762 mmHg 64%
    18:00 +17°C° 0,1 mm 5 m/S 762 mmHg 70%
    19:00 +16°C° 0,1 mm 5 m/S 762 mmHg 76%
    20:00 +15°C° 0 mm 5 m/S 762 mmHg 79%
    21:00 +13°C° 0 mm 4 m/S 762 mmHg 81%
    22:00 +12°C° 0 mm 4 m/S 763 mmHg 84%
    23:00 +11°C° 0 mm 4 m/S 763 mmHg 86%
    Mehr zeigen